Stündliche Wetter Abashevo

Heute, 2 März, Dienstag

Zeit Temperatur Niederschläge Wind Luftdruck Luftfeuchtigkeit
00:00 -17°C° 0 mm 3 m/S 762 mmHg 94%
01:00 -17°C° 0 mm 3 m/S 761 mmHg 94%
02:00 -18°C° 0 mm 4 m/S 761 mmHg 93%
03:00 -17°C° 0 mm 4 m/S 760 mmHg 95%
04:00 -17°C° 0 mm 5 m/S 759 mmHg 94%
05:00 -15°C° 0 mm 5 m/S 758 mmHg 93%
06:00 -16°C° 0 mm 6 m/S 757 mmHg 93%
07:00 -14°C° 0.4 mm 7 m/S 757 mmHg 93%
08:00 -13°C° 0.4 mm 8 m/S 756 mmHg 93%
09:00 -11°C° 0 mm 9 m/S 755 mmHg 94%
10:00 -9°C° 0.2 mm 9 m/S 754 mmHg 92%
11:00 -8°C° 0.2 mm 9 m/S 754 mmHg 90%
12:00 -5°C° 0.2 mm 9 m/S 753 mmHg 89%
13:00 -5°C° 0 mm 8 m/S 752 mmHg 90%
14:00 -4°C° 0 mm 8 m/S 752 mmHg 91%
15:00 -3°C° 0 mm 7 m/S 751 mmHg 93%
16:00 -3°C° 0.5 mm 7 m/S 751 mmHg 94%
17:00 -3°C° 0.5 mm 7 m/S 750 mmHg 94%
18:00 -3°C° 0.5 mm 6 m/S 750 mmHg 95%
19:00 -3°C° 0.1 mm 6 m/S 750 mmHg 96%
20:00 -2°C° 0.1 mm 5 m/S 750 mmHg 96%
21:00 -2°C° 0.1 mm 4 m/S 749 mmHg 96%
22:00 -2°C° 0 mm 4 m/S 749 mmHg 96%
23:00 -2°C° 0 mm 3 m/S 749 mmHg 95%

Morgen, 3 März, Mittwoch

Zeit Temperatur Niederschläge Wind Luftdruck Luftfeuchtigkeit
00:00 -2°C° 0 mm 2 m/S 749 mmHg 95%
01:00 -3°C° 0 mm 2 m/S 749 mmHg 94%
02:00 -3°C° 0 mm 2 m/S 749 mmHg 94%
03:00 -4°C° 0 mm 2 m/S 749 mmHg 93%
04:00 -4°C° 0.1 mm 2 m/S 749 mmHg 94%
05:00 -4°C° 0.1 mm 2 m/S 749 mmHg 94%
06:00 -5°C° 0.1 mm 2 m/S 749 mmHg 94%
07:00 -6°C° 0 mm 3 m/S 749 mmHg 93%
08:00 -6°C° 0 mm 3 m/S 750 mmHg 93%
09:00 -8°C° 0 mm 4 m/S 750 mmHg 92%
10:00 -7°C° 0 mm 4 m/S 750 mmHg 90%
11:00 -5°C° 0 mm 4 m/S 750 mmHg 89%
12:00 -5°C° 0 mm 5 m/S 751 mmHg 87%
13:00 -5°C° 0 mm 5 m/S 751 mmHg 86%
14:00 -5°C° 0 mm 5 m/S 751 mmHg 85%
15:00 -5°C° 0 mm 5 m/S 752 mmHg 83%
16:00 -6°C° 0 mm 5 m/S 752 mmHg 85%
17:00 -7°C° 0 mm 4 m/S 752 mmHg 87%
18:00 -8°C° 0 mm 4 m/S 752 mmHg 88%
19:00 -9°C° 0 mm 4 m/S 753 mmHg 88%
20:00 -9°C° 0 mm 4 m/S 753 mmHg 88%
21:00 -9°C° 0 mm 3 m/S 754 mmHg 88%
22:00 -10°C° 0 mm 3 m/S 754 mmHg 88%
23:00 -12°C° 0 mm 4 m/S 754 mmHg 89%

übermorgen, 4 März, Donnerstag

Zeit Temperatur Niederschläge Wind Luftdruck Luftfeuchtigkeit
00:00 -14°C° 0 mm 4 m/S 754 mmHg 89%
01:00 -14°C° 0 mm 4 m/S 754 mmHg 90%
02:00 -14°C° 0 mm 4 m/S 754 mmHg 91%
03:00 -14°C° 0 mm 4 m/S 754 mmHg 91%
04:00 -14°C° 0 mm 4 m/S 753 mmHg 92%
05:00 -13°C° 0 mm 5 m/S 753 mmHg 92%
06:00 -12°C° 0 mm 5 m/S 753 mmHg 92%
07:00 -11°C° 0 mm 6 m/S 753 mmHg 91%
08:00 -10°C° 0 mm 6 m/S 752 mmHg 90%
09:00 -8°C° 0 mm 7 m/S 752 mmHg 89%
10:00 -7°C° 0 mm 7 m/S 751 mmHg 88%
11:00 -6°C° 0 mm 8 m/S 751 mmHg 87%
12:00 -5°C° 0 mm 8 m/S 750 mmHg 86%
13:00 -4°C° 0 mm 8 m/S 750 mmHg 89%
14:00 -4°C° 0 mm 9 m/S 750 mmHg 91%
15:00 -3°C° 0 mm 9 m/S 749 mmHg 94%
16:00 -2°C° 0 mm 8 m/S 749 mmHg 92%
17:00 -2°C° 0 mm 8 m/S 749 mmHg 90%
18:00 -2°C° 0 mm 8 m/S 749 mmHg 88%
19:00 -2°C° 0 mm 8 m/S 749 mmHg 87%
20:00 -2°C° 0 mm 7 m/S 749 mmHg 87%
21:00 -2°C° 0 mm 7 m/S 749 mmHg 87%
22:00 -3°C° 0 mm 7 m/S 749 mmHg 87%
23:00 -3°C° 0 mm 7 m/S 749 mmHg 87%

5 März, Freitag

Zeit Temperatur Niederschläge Wind Luftdruck Luftfeuchtigkeit
00:00 -3°C° 0 mm 7 m/S 749 mmHg 87%
01:00 -3°C° 0 mm 7 m/S 749 mmHg 87%
02:00 -4°C° 0 mm 6 m/S 748 mmHg 88%
03:00 -4°C° 0 mm 6 m/S 748 mmHg 88%
04:00 -4°C° 0.2 mm 7 m/S 748 mmHg 91%
05:00 -3°C° 0.2 mm 7 m/S 748 mmHg 93%
06:00 -3°C° 0.2 mm 7 m/S 747 mmHg 96%
07:00 -2°C° 0.2 mm 7 m/S 747 mmHg 97%
08:00 -2°C° 0.2 mm 7 m/S 747 mmHg 98%
09:00 -1°C° 0.2 mm 7 m/S 747 mmHg 99%
10:00 -1°C° 0.1 mm 7 m/S 747 mmHg 99%
11:00 -1°C° 0.1 mm 7 m/S 747 mmHg 99%
12:00 -1°C° 0.1 mm 7 m/S 747 mmHg 99%
13:00 -1°C° 0.1 mm 7 m/S 748 mmHg 99%
14:00 -2°C° 0.1 mm 6 m/S 748 mmHg 99%
15:00 -2°C° 0.1 mm 6 m/S 749 mmHg 99%
16:00 -2°C° 0.3 mm 5 m/S 750 mmHg 97%
17:00 -3°C° 0.3 mm 4 m/S 751 mmHg 96%
18:00 -4°C° 0.3 mm 4 m/S 752 mmHg 94%
19:00 -6°C° 0 mm 3 m/S 752 mmHg 93%
20:00 -7°C° 0 mm 3 m/S 753 mmHg 92%
21:00 -8°C° 0 mm 2 m/S 754 mmHg 91%
22:00 -8°C° 0 mm 2 m/S 754 mmHg 90%
23:00 -9°C° 0 mm 2 m/S 755 mmHg 89%

6 März, Samstag

Zeit Temperatur Niederschläge Wind Luftdruck Luftfeuchtigkeit
00:00 -10°C° 0 mm 2 m/S 755 mmHg 88%
01:00 -10°C° 0 mm 2 m/S 755 mmHg 89%
02:00 -10°C° 0 mm 2 m/S 755 mmHg 89%
03:00 -12°C° 0 mm 3 m/S 755 mmHg 89%
04:00 -12°C° 0.2 mm 3 m/S 755 mmHg 91%
05:00 -12°C° 0.2 mm 3 m/S 755 mmHg 92%
06:00 -12°C° 0.2 mm 3 m/S 755 mmHg 94%
07:00 -12°C° 0.2 mm 4 m/S 755 mmHg 93%
08:00 -12°C° 0.2 mm 4 m/S 755 mmHg 93%
09:00 -12°C° 0.2 mm 4 m/S 755 mmHg 92%
10:00 -12°C° 0 mm 4 m/S 755 mmHg 91%
11:00 -11°C° 0 mm 4 m/S 755 mmHg 91%
12:00 -11°C° 0 mm 4 m/S 755 mmHg 90%
13:00 -10°C° 0 mm 3 m/S 755 mmHg 90%
14:00 -10°C° 0 mm 3 m/S 755 mmHg 90%
15:00 -9°C° 0 mm 2 m/S 755 mmHg 90%
16:00 -10°C° 0 mm 2 m/S 755 mmHg 90%
17:00 -13°C° 0 mm 2 m/S 755 mmHg 90%
18:00 -12°C° 0 mm 1 m/S 755 mmHg 90%
19:00 -12°C° 0 mm 1 m/S 755 mmHg 90%
20:00 -13°C° 0 mm 1 m/S 756 mmHg 90%
21:00 -13°C° 0 mm 1 m/S 756 mmHg 89%
22:00 -14°C° 0 mm 2 m/S 756 mmHg 90%
23:00 -14°C° 0 mm 2 m/S 756 mmHg 91%

7 März, Sonntag

Zeit Temperatur Niederschläge Wind Luftdruck Luftfeuchtigkeit
00:00 -15°C° 0 mm 3 m/S 756 mmHg 92%
01:00 -15°C° 0 mm 3 m/S 757 mmHg 92%
02:00 -16°C° 0 mm 3 m/S 757 mmHg 91%
03:00 -17°C° 0 mm 3 m/S 757 mmHg 90%
04:00 -18°C° 0 mm 3 m/S 757 mmHg 89%
05:00 -18°C° 0 mm 2 m/S 758 mmHg 88%
06:00 -19°C° 0 mm 2 m/S 758 mmHg 88%
07:00 -18°C° 0 mm 2 m/S 758 mmHg 87%
08:00 -17°C° 0 mm 2 m/S 758 mmHg 87%
09:00 -16°C° 0 mm 2 m/S 758 mmHg 86%
10:00 -15°C° 0 mm 2 m/S 758 mmHg 85%
11:00 -15°C° 0 mm 3 m/S 758 mmHg 85%
12:00 -15°C° 0 mm 4 m/S 758 mmHg 84%
13:00 -14°C° 0 mm 4 m/S 757 mmHg 85%
14:00 -14°C° 0 mm 5 m/S 757 mmHg 86%
15:00 -13°C° 0 mm 5 m/S 756 mmHg 87%
16:00 -14°C° 0 mm 6 m/S 756 mmHg 88%
17:00 -12°C° 0 mm 6 m/S 755 mmHg 89%
18:00 -13°C° 0 mm 7 m/S 755 mmHg 90%
19:00 -12°C° 0 mm 7 m/S 754 mmHg 88%
20:00 -11°C° 0 mm 8 m/S 753 mmHg 87%
21:00 -11°C° 0 mm 8 m/S 753 mmHg 85%
22:00 -10°C° 0 mm 8 m/S 752 mmHg 83%
23:00 -10°C° 0 mm 8 m/S 751 mmHg 81%
Mehr zeigen

Wir brauchen deine Erlaubnis

Meteoprog und unser Service Anbieter werden persönliche Daten aufbewahren, so wie Cookies, Geräte Bezeichnung oder ähnliche Technologien von deinem Gerät und Prozess, so wie Persönliche Daten Inhalte und Werbungen, genauso wie social Media und den Verkehr zu analysieren.

  • Aufbewahrung und/oder Zugang zu deiner Geräte Informationen.

    Cookies, Geräte Bezeichnung oder andere Informationen, können aufbewahrt oder Zugang zu deinem Gerät erhalten, für den Grund, der oben angegeben wird.

  • Personalisierte Werbung und Inhalte, Messungen, Einblick in das Publikum und Produkt Entwicklung.

    Werbungen und Inhalte können personalisiert werden, basierend auf ein Profil. Mehr Daten können besser personalisierte Werbungen und Inhalte hinzufügen. Werbung und Inhalte können gezeigt und gemessen werden. Einblicke über das Publikum, welche die Werbung gesehen haben und den Inhalt, können abgeleitet werden. So wie Daten können genutzt werden, um es zu verbessern oder die Benutzer Erfahrung zu verbessern das System und die Software.

Wenn du “Ich stimme zu” klickst, erlaubst du uns, die Cookies zu benutzen die Geräte Bezeichnung, den Web oder ähnliche Technologien zu benutzen. Deine Settings, können in deinem Gerät bei deinem Browser geändert werden.

Für den bestimmten Zweck, berechtigten Interessen beruhen darauf, mehr als auf den Inhalt. Du kannst mehr darüber in unseren Privaten und Cookie Politik lesen.